Home   Weather   Metairie   Past weeks

Flag for USA Past Weather in Metairie, Louisiana, USA — Yesterday and Last 2 Weeks

Now
81 °F

Partly sunny.


Feels Like: 82 °F
Forecast: 69 / 83 °F
Wind: 8 mph from North

Location: New Orleans International Airport

Current Time: Oct 1, 2016 at 10:41:07 AM

Latest Report: Oct 1, 2016 at 9:53 AM


Visibility: 10 mi

Pressure: 30.11 "Hg

Humidity: 51%

Dew Point: 61 °F

Location of MetairieLocation

Past Weather in Metairie — Graph

°F

Metairie Temperature Yesterday

Maximum temperature yesterday: 83 °F (at 2:53 PM)
Minimum temperature yesterday: 71 °F (at 5:53 AM)
Average temperature yesterday: 77 °F

High & Low Weather Summary for the Past Weeks

 TemperatureHumidityPressure
High94 °F (Sep 20, 2:53 PM)93% (Sep 19, 5:53 AM)30.15 "Hg (Sep 19, 5:53 AM)
Low67 °F (Oct 1, 6:53 AM)38% (Sep 30, 2:53 PM)29.90 "Hg (Sep 27, 4:53 PM)
Average83 °F70%30.01 "Hg
* Reported Sep 16 8:53 AM — Oct 1 8:53 AM, Metairie, Weather by CustomWeather, © 2016

Note: Actual official high and low records may vary slightly from our data, if they occured in-between our weather recording intervals... More about our weather records

Advertising

Metairie Weather History for the Previous 24 Hours

Scroll right to see more
 ConditionsComfort  
Time TempWeatherWind HumidityBarometerVisibility
8:53 AM
Sat, Oct 1
78 °FPassing clouds.8 mph60%30.10 "Hg10 mi
7:53 AM72 °FPassing clouds.No wind73%30.09 "Hg8 mi
6:53 AM67 °FPassing clouds.No wind81%30.07 "Hg10 mi
5:53 AM68 °FPassing clouds.3 mph82%30.06 "Hg10 mi
4:53 AM68 °FPassing clouds.No wind82%30.05 "Hg10 mi
3:53 AM68 °FPassing clouds.No wind78%30.06 "Hg10 mi
2:53 AM69 °FPassing clouds.No wind76%30.06 "Hg10 mi
1:53 AM70 °FPassing clouds.No wind73%30.07 "Hg10 mi
12:53 AM71 °FPassing clouds.No wind63%30.07 "Hg10 mi
11:53 PM
Fri, Sep 30
74 °FPassing clouds.5 mph57%30.07 "Hg10 mi
10:53 PM74 °FPassing clouds.5 mph56%30.07 "Hg10 mi
9:53 PM76 °FPassing clouds.6 mph52%30.06 "Hg10 mi
8:53 PM76 °FPassing clouds.7 mph50%30.06 "Hg10 mi
7:53 PM76 °FPassing clouds.3 mph58%30.05 "Hg10 mi
6:53 PM78 °FPassing clouds.No wind50%30.04 "Hg10 mi
5:53 PM81 °FPassing clouds.6 mph42%30.04 "Hg10 mi
4:53 PM82 °FPassing clouds.7 mph41%30.04 "Hg10 mi
3:53 PM81 °FPassing clouds.7 mph42%30.05 "Hg10 mi
2:53 PM83 °FPassing clouds.9 mph38%30.06 "Hg10 mi
1:53 PM82 °FPassing clouds.9 mph40%30.09 "Hg10 mi
12:53 PM82 °FPassing clouds.6 mph40%30.12 "Hg10 mi
11:53 AM80 °FPassing clouds.13 mph44%30.14 "Hg10 mi
10:53 AM80 °FPassing clouds.10 mph44%30.15 "Hg10 mi
Weather by CustomWeather, © 2016

See weather overviewHow to use our weather pages